{"data":{"norad_id":59531,"intl_designator":"2024-073W","name":"STARLINK-31619","alt_names":[],"object_type":"PAYLOAD","status":"ACTIVE","operator":null,"country":"US","launch_date":"2024-04-17","launch_site_code":"AFETR","launch_vehicle":null,"mission":null,"orbit_class":"UNKNOWN","rcs_meters":null,"size_class":null,"mass_kg":null,"dimensions":null,"purposes":["comms"],"wikipedia_slug":null,"has_3d_model":false,"image_url":null,"decayed_at":null,"tle_current":{"epoch":"2026-05-24T18:37:18.518592Z","epoch_age_seconds":91725,"freshness":"FRESH","line1":"1 59531U 24073W   26144.77590878  .00003943  00000+0  15270-3 0  9993","line2":"2 59531  42.9961 248.1846 0001402 278.2709  81.7984 15.27583406118931","mean_motion":15.27583406,"eccentricity":0.0001402,"inclination_deg":42.9961,"raan_deg":248.1846,"arg_perigee_deg":278.2709,"mean_anomaly_deg":81.7984,"bstar":0.0001527,"rev_number":11893,"period_min":94.266538530335,"perigee_km":482.0769604085,"apogee_km":484.0008341301,"semimajor_km":6861.1758972693,"source":"CELESTRAK","updated_at":"2026-05-25T13:38:18.977683Z"}}}